Wind_Speed
2 2 3 4 5 6 5 5 4 5 5 5 5 5 5 4 3 3 2 2 2 2 2 2 1 1 1 1 0 0 0 1 1 1 1 1 1 1 2 2 2 2 3 2 2 2 3 3 3
2 2 3 3 4 4 4 4 5 5 5 5 5 4 4 4 3 3 3 3 3 2 2 2 2 1 1 1 2 1 1 1 1 1 1 1 1 2 2 2 2 2 2 3 3 3 3 3 4
2 2 3 3 4 4 4 4 5 5 5 5 5 5 5 4 3 3 3 4 3 3 3 3 2 2 3 3 2 2 1 1 2 2 2 2 2 2 3 3 2 3 2 3 3 4 4 4 4
3 3 3 4 3 4 4 4 5 5 5 5 5 4 4 4 4 3 3 4 4 4 3 3 3 3 3 3 3 3 2 2 3 3 3 3 3 3 4 4 3 3 4 4 4 4 4 4 4
3 3 3 4 4 4 4 5 5 5 4 5 5 4 4 4 4 4 4 4 4 4 4 4 4 3 3 3 3 4 4 4 4 4 5 5 5 5 4 5 5 4 4 4 4 5 5 5 5
4 4 4 4 4 5 4 4 5 4 4 4 4 4 4 4 5 5 5 5 5 5 5 5 4 4 5 5 5 5 5 5 6 6 6 6 6 6 6 6 6 6 5 5 5 6 6 6 6
4 4 4 4 5 6 5 5 5 5 5 5 5 5 5 5 6 6 6 6 7 7 7 6 6 6 6 7 7 7 6 7 7 7 7 7 7 7 7 7 7 7 7 7 7 7 7 7 7
4 5 5 5 6 7 6 6 6 6 5 5 5 6 5 6 6 6 7 7 7 8 8 8 8 8 8 8 7 7 7 7 8 7 8 7 7 8 8 8 8 8 8 8 8 8 9 8 8
5 5 4 5 6 7 7 8 7 7 6 6 6 6 6 7 7 7 7 7 8 8 9 9 8 8 8 8 8 8 8 8 8 8 9 9 9 9 9 9 9 9 10 10 9 10 9 9 9
6 6 5 6 6 7 7 7 7 7 7 7 6 7 7 8 8 9 8 8 9 9 9 10 9 9 8 9 9 8 8 9 9 9 9 10 10 10 9 9 9 10 10 10 10 9 9 9 9
7 7 6 6 6 7 8 7 8 8 8 8 7 7 7 8 9 9 9 9 9 9 9 9 9 9 9 9 9 9 9 10 10 10 10 11 11 10 10 10 9 9 9 9 9 9 10 10 9
7 8 7 7 7 7 8 8 8 7 7 8 8 8 8 8 8 9 9 9 9 9 9 9 9 9 10 9 10 10 10 10 10 10 10 11 11 10 10 10 10 10 10 10 10 10 10 10 10
8 8 8 7 7 7 8 8 8 7 7 7 7 7 8 8 8 9 9 9 10 10 10 10 10 9 10 10 10 10 10 10 10 11 10 11 10 9 10 10 11 11 10 10 10 10 10 10 10
7 7 7 7 7 7 7 8 8 8 8 8 8 8 8 9 9 9 9 9 10 10 10 10 10 10 10 10 10 10 10 10 10 10 10 10 11 10 10 11 11 11 11 11 10 10 10 10 10
7 8 8 8 8 8 8 8 9 9 9 9 9 10 9 10 9 10 10 9 9 9 10 10 10 10 10 10 10 10 11 10 10 10 11 11 10 10 10 11 11 11 11 11 11 10 10 9 9
8 8 8 8 9 8 9 9 9 9 10 10 10 11 10 10 10 10 10 10 10 10 10 9 9 10 10 10 10 10 10 11 11 11 12 12 12 11 11 11 11 11 11 10 10 10 9 9 10
8 8 8 9 9 9 9 9 9 10 10 11 11 11 11 10 10 10 11 11 10 11 10 10 10 10 10 10 10 10 11 11 11 12 11 11 11 11 11 12 11 10 10 10 10 10 10 9 10
8 9 9 9 9 10 10 10 10 10 11 11 11 11 11 11 11 11 11 11 11 11 11 11 11 11 11 11 11 11 11 11 11 11 12 12 11 11 12 12 11 11 10 10 10 11 10 10 10
10 10 10 10 10 11 11 10 11 11 11 12 12 12 12 11 11 12 12 11 11 11 12 12 12 12 12 12 11 11 11 11 11 11 11 11 11 11 12 12 12 12 11 10 10 10 11 11 11
10 11 11 11 12 12 11 11 12 12 12 13 13 13 13 13 12 12 12 12 11 12 12 12 12 12 12 12 11 11 11 11 11 11 10 11 11 12 12 12 12 12 11 10 10 10 11 11 11
11 11 11 12 12 12 13 12 12 12 13 13 13 13 13 13 13 13 13 13 12 12 13 13 13 12 12 12 12 11 11 11 11 11 11 11 11 11 11 12 11 11 11 10 10 10 11 10 10
12 12 12 12 13 12 13 14 13 13 14 13 13 14 13 14 14 13 13 13 13 13 13 13 13 13 13 13 12 12 12 11 11 11 11 10 10 10 10 11 10 10 10 10 10 10 10 10 10
12 12 12 12 12 12 13 15 14 14 15 15 14 14 14 14 14 14 13 14 14 13 13 13 13 13 13 13 12 12 12 11 11 11 11 10 10 10 10 9 8 9 9 10 10 10 9 9 10
12 11 11 11 11 13 13 15 16 14 15 16 15 15 15 15 15 15 14 15 14 14 14 14 13 13 13 12 12 13 12 11 11 11 11 10 9 9 9 9 8 8 9 10 9 9 9 9 10
12 11 11 11 12 13 13 15 16 15 16 16 16 16 15 15 16 15 15 15 15 14 14 14 13 14 14 13 13 13 12 12 12 11 11 10 9 9 9 9 8 8 8 9 9 9 9 9 9
13 12 12 12 12 13 14 16 16 17 17 17 17 17 16 16 16 16 16 15 15 15 14 14 14 14 14 14 14 13 12 12 12 11 11 11 10 9 9 9 9 8 8 9 9 10 10 10 10
14 14 14 15 15 15 16 17 18 18 18 18 18 18 18 17 17 17 17 16 16 16 15 15 14 14 14 14 14 14 13 12 12 12 12 12 11 10 10 9 9 9 9 9 9 10 10 10 10
15 15 15 16 16 16 16 17 19 18 19 19 19 19 18 17 17 17 17 17 17 16 16 16 15 15 15 15 15 14 14 13 12 12 12 12 12 11 11 11 10 10 10 10 10 10 10 10 9
16 16 16 16 17 17 17 18 19 19 19 19 19 19 19 18 18 17 17 16 16 16 16 16 16 16 16 16 15 15 14 14 13 13 12 12 12 12 12 12 12 11 11 11 11 11 10 10 10
16 17 17 18 18 19 19 20 19 20 19 19 18 18 18 18 18 17 17 17 17 16 16 16 16 17 17 16 16 16 15 15 15 14 14 13 13 13 13 12 13 13 12 12 11 11 11 11 11
Wind_Direction
127 129 141 139 152 158 158 152 157 169 181 182 188 188 188 187 194 207 222 249 268 283 285 258 242 236 253 239 250 100 140 123 116 94 58 41 29 21 9 14 23 26 25 16 9 16 5 355 351
152 151 160 166 163 162 163 165 174 184 188 190 190 194 198 196 204 217 239 264 270 264 256 242 245 247 253 247 238 238 249 231 247 244 261 322 341 338 336 349 357 6 13 11 357 349 339 335 337
180 175 180 183 182 183 183 184 182 179 189 195 196 204 210 215 219 230 253 264 264 262 258 248 253 264 265 258 248 245 257 263 265 260 260 279 296 307 308 315 320 328 331 334 332 331 329 323 325
195 185 194 194 199 202 196 190 196 186 190 199 206 210 221 232 235 237 253 265 261 263 266 258 261 267 268 261 260 259 263 265 269 265 268 277 284 297 300 303 306 310 316 321 320 320 319 319 320
205 195 204 211 219 223 219 218 213 204 203 214 222 223 235 239 245 248 251 262 261 263 266 265 264 266 268 266 263 270 267 268 272 273 273 276 282 289 295 303 313 313 315 315 310 306 304 309 314
211 205 218 228 231 232 228 222 222 226 225 228 227 230 241 247 250 254 266 273 273 269 270 269 265 267 271 274 272 272 271 272 271 273 276 280 284 288 294 302 306 306 305 304 302 298 299 303 305
221 222 231 235 232 236 240 227 228 235 237 245 252 255 252 254 255 262 269 271 271 268 269 271 266 268 272 273 274 272 273 279 280 277 276 278 285 291 294 296 294 293 292 295 296 295 296 298 301
230 231 234 241 242 247 249 242 239 243 244 252 257 262 265 267 264 267 272 269 269 270 271 272 270 272 275 275 275 276 279 280 281 280 275 277 282 288 291 291 290 288 289 293 295 294 293 293 294
230 232 240 249 252 253 255 250 250 252 252 253 257 263 265 268 270 269 273 274 275 273 273 272 271 273 274 276 277 281 284 283 283 281 279 281 285 286 289 291 291 292 293 293 293 295 297 295 295
233 238 248 256 257 260 260 254 255 257 259 258 260 266 268 268 270 271 273 275 277 278 277 271 271 274 276 276 278 281 283 287 289 288 286 287 287 285 285 289 292 295 295 293 293 295 294 294 294
237 243 254 261 262 261 263 265 262 258 261 263 266 270 274 276 276 275 274 278 281 281 282 276 272 274 275 278 279 279 282 286 289 291 289 288 287 287 288 284 286 290 292 291 292 291 294 294 294
243 246 253 261 265 265 267 269 265 260 264 268 271 275 275 278 279 280 280 279 281 285 286 283 282 280 277 276 278 280 280 283 285 289 289 287 287 289 288 285 285 289 292 293 294 292 294 295 298
250 254 257 264 265 263 264 264 263 266 269 271 274 276 282 281 281 283 284 284 283 283 284 283 285 285 281 279 281 282 280 282 282 286 289 287 285 287 286 288 286 286 287 290 292 292 291 294 294
255 258 262 267 267 269 267 265 264 266 272 276 278 280 283 284 285 287 286 285 284 282 283 282 281 282 283 285 286 284 279 280 282 287 288 286 283 284 287 287 288 286 283 284 288 290 291 293 295
256 260 264 268 268 272 276 271 271 273 274 275 277 279 282 285 286 287 286 285 286 285 284 285 281 281 284 289 290 288 282 281 283 287 287 286 286 288 292 291 288 288 284 283 287 290 292 293 294
255 262 267 269 271 274 277 280 278 277 278 277 278 279 282 286 288 287 285 283 284 284 287 289 287 285 286 290 291 290 288 285 285 286 286 287 290 289 290 289 287 286 284 283 284 284 288 290 294
255 263 271 273 272 273 277 282 281 283 282 281 280 279 281 283 284 284 284 282 281 282 285 287 289 287 287 290 291 292 293 288 287 284 285 287 288 288 288 287 288 286 284 283 282 282 284 287 290
263 263 267 270 276 278 279 281 283 286 286 283 281 279 279 279 281 282 284 283 281 282 282 283 285 286 286 287 287 291 293 290 290 287 285 285 284 284 284 285 285 283 283 284 281 280 280 282 287
264 262 267 271 273 277 280 283 286 288 289 285 282 281 280 279 279 281 281 281 281 282 283 282 283 284 286 285 285 288 289 289 289 291 290 287 284 284 283 283 282 281 280 279 280 279 280 281 283
267 265 266 269 271 276 279 283 288 286 286 286 285 284 281 279 279 279 280 280 282 283 284 282 283 283 283 283 285 286 286 287 288 290 291 287 285 285 284 285 283 279 278 277 278 280 282 280 278
267 265 265 267 270 276 280 283 287 286 286 286 284 283 282 281 279 277 278 280 280 280 282 283 281 280 281 281 282 283 286 286 285 285 289 291 291 291 288 287 284 278 276 277 280 280 282 281 277
265 268 268 271 272 278 283 287 285 288 289 289 286 283 283 282 282 279 277 277 278 279 281 282 279 279 278 279 280 282 284 283 285 286 289 293 292 293 294 291 286 279 279 280 280 281 282 280 278
265 269 272 274 275 279 282 285 284 286 288 287 286 285 283 282 281 278 276 276 277 277 279 281 279 278 276 278 280 283 282 281 283 287 289 290 292 296 297 291 284 279 278 279 282 284 282 281 279
265 266 269 274 277 279 279 280 282 284 286 286 286 284 282 280 280 278 276 275 275 275 276 278 277 275 274 278 281 284 282 278 281 286 289 290 292 295 298 294 286 279 280 280 282 282 282 283 281
260 263 267 273 279 280 278 278 281 286 286 285 284 282 281 279 277 276 275 274 273 273 274 275 274 274 273 274 278 281 281 277 279 285 289 289 290 290 293 294 292 285 283 280 279 279 281 282 283
259 258 260 266 268 277 278 280 284 285 285 283 282 280 279 278 277 276 275 272 273 272 273 274 274 274 273 274 275 278 280 279 279 286 289 287 286 285 285 288 290 288 287 282 278 278 281 280 281
260 257 257 257 260 264 268 274 280 283 284 282 281 280 279 278 277 275 274 272 271 271 272 271 272 272 272 272 274 276 277 278 281 285 285 283 283 283 280 283 286 287 289 291 286 280 278 277 276
261 260 256 256 259 261 267 272 277 277 282 285 283 281 281 278 275 273 273 272 270 269 270 270 271 270 269 270 273 274 277 277 281 284 284 283 281 281 277 279 279 281 287 291 291 285 278 275 273
267 263 260 261 260 260 263 266 274 278 280 282 282 279 280 278 273 272 271 271 269 269 269 269 268 269 269 269 270 273 276 276 275 277 280 280 278 278 278 277 276 277 282 286 288 287 282 276 275
269 268 264 263 262 260 263 267 270 275 278 280 281 279 278 278 273 271 270 269 267 267 269 270 269 269 268 267 268 270 271 273 273 274 275 276 275 276 277 277 278 277 279 282 284 285 284 281 280
Height
5874 5874 5875 5876 5877 5877 5877 5878 5878 5879 5880 5881 5882 5883 5883 5884 5886 5888 5886 5885 5885 5885 5884 5884 5885 5885 5886 5886 5886 5886 5886 5886 5886 5886 5886 5886 5886 5886 5885 5885 5884 5884 5884 5884 5884 5883 5883 5883 5882
5875 5875 5877 5877 5877 5877 5878 5878 5879 5880 5881 5881 5882 5883 5884 5884 5885 5886 5885 5885 5885 5885 5884 5884 5885 5885 5885 5886 5886 5886 5886 5887 5887 5886 5886 5886 5886 5886 5886 5885 5885 5884 5884 5884 5884 5883 5883 5883 5882
5875 5876 5877 5878 5877 5878 5879 5879 5879 5880 5881 5881 5882 5883 5884 5885 5885 5885 5885 5885 5885 5885 5884 5884 5885 5885 5885 5886 5886 5886 5886 5886 5886 5886 5886 5886 5886 5886 5886 5885 5885 5884 5884 5884 5884 5883 5883 5882 5881
5875 5877 5878 5878 5877 5878 5878 5879 5879 5880 5881 5881 5882 5883 5883 5884 5885 5885 5885 5885 5885 5885 5885 5885 5885 5885 5885 5885 5886 5886 5886 5886 5886 5886 5886 5886 5886 5886 5885 5885 5885 5884 5884 5884 5883 5883 5882 5882 5881
5875 5877 5877 5877 5877 5878 5878 5879 5879 5880 5880 5881 5882 5883 5883 5884 5884 5884 5884 5884 5885 5885 5885 5884 5885 5885 5885 5885 5885 5886 5886 5886 5886 5886 5886 5885 5885 5885 5885 5885 5884 5884 5884 5883 5883 5882 5882 5881 5880
5876 5876 5877 5877 5877 5877 5878 5878 5879 5880 5880 5881 5882 5882 5883 5884 5884 5884 5884 5884 5884 5884 5884 5884 5884 5884 5884 5885 5885 5885 5885 5885 5885 5885 5885 5885 5884 5884 5885 5884 5884 5883 5883 5883 5882 5882 5881 5880 5880
5876 5876 5875 5876 5876 5877 5878 5878 5879 5880 5880 5881 5881 5882 5882 5883 5883 5883 5883 5883 5883 5883 5884 5884 5884 5884 5884 5884 5884 5884 5884 5884 5884 5884 5884 5884 5884 5884 5884 5883 5883 5882 5882 5882 5881 5881 5880 5880 5879
5875 5876 5875 5875 5876 5877 5878 5878 5878 5879 5880 5880 5881 5881 5882 5882 5882 5882 5882 5882 5882 5882 5883 5883 5883 5883 5883 5883 5883 5883 5883 5883 5883 5883 5883 5883 5883 5883 5883 5882 5882 5881 5881 5881 5880 5880 5879 5878 5878
5874 5876 5875 5875 5876 5876 5876 5877 5878 5878 5879 5879 5880 5880 5881 5881 5881 5881 5881 5881 5881 5881 5881 5881 5882 5882 5882 5882 5882 5882 5882 5882 5882 5882 5881 5881 5881 5881 5881 5881 5880 5880 5880 5879 5879 5878 5878 5877 5876
5874 5874 5875 5875 5875 5875 5876 5877 5877 5878 5878 5879 5879 5879 5879 5880 5880 5880 5880 5880 5880 5880 5880 5880 5880 5880 5881 5881 5881 5881 5881 5881 5880 5880 5880 5880 5880 5880 5880 5879 5879 5879 5878 5878 5877 5877 5876 5876 5875
5873 5873 5874 5874 5875 5875 5875 5876 5876 5877 5877 5878 5878 5878 5878 5878 5878 5879 5879 5879 5879 5879 5879 5879 5879 5879 5879 5879 5879 5879 5879 5879 5879 5879 5879 5879 5878 5878 5878 5878 5877 5877 5877 5876 5876 5875 5875 5874 5874
5872 5872 5873 5873 5874 5874 5875 5875 5876 5876 5876 5877 5877 5877 5877 5877 5877 5877 5878 5878 5877 5877 5877 5877 5877 5877 5877 5878 5878 5878 5878 5877 5877 5877 5877 5877 5877 5876 5876 5876 5876 5875 5875 5874 5874 5874 5873 5873 5872
5871 5871 5872 5872 5873 5873 5874 5874 5875 5875 5875 5875 5876 5876 5876 5876 5876 5876 5876 5876 5876 5876 5876 5876 5876 5876 5876 5876 5876 5876 5876 5876 5876 5875 5875 5875 5875 5874 5874 5874 5874 5873 5873 5873 5873 5872 5872 5871 5870
5870 5870 5871 5871 5872 5872 5873 5873 5874 5874 5874 5874 5874 5874 5874 5874 5874 5874 5875 5875 5875 5874 5874 5874 5874 5874 5874 5874 5874 5874 5874 5874 5874 5873 5873 5873 5873 5873 5872 5872 5872 5871 5871 5871 5871 5870 5870 5869 5869
5868 5869 5870 5870 5870 5871 5872 5872 5872 5872 5873 5873 5873 5873 5873 5873 5873 5873 5873 5873 5873 5873 5873 5872 5872 5872 5872 5872 5872 5872 5872 5872 5872 5872 5871 5871 5871 5871 5870 5870 5870 5869 5869 5869 5869 5868 5868 5868 5867
5867 5868 5869 5869 5869 5870 5872 5871 5871 5871 5871 5871 5872 5872 5872 5871 5871 5871 5871 5871 5871 5871 5871 5871 5871 5871 5871 5871 5871 5871 5870 5870 5870 5870 5869 5869 5869 5869 5868 5868 5868 5867 5867 5867 5867 5867 5866 5866 5865
5866 5867 5867 5868 5867 5868 5869 5869 5869 5869 5870 5870 5870 5870 5870 5870 5869 5869 5869 5869 5869 5869 5869 5869 5869 5869 5869 5869 5869 5869 5868 5868 5868 5867 5867 5867 5867 5866 5866 5866 5865 5865 5865 5865 5865 5864 5864 5864 5864
5864 5865 5865 5866 5866 5866 5867 5867 5868 5868 5868 5868 5868 5868 5867 5868 5868 5868 5868 5867 5867 5867 5867 5867 5868 5867 5867 5867 5867 5867 5866 5866 5866 5865 5865 5865 5864 5864 5864 5863 5863 5863 5863 5862 5862 5862 5862 5862 5862
5862 5863 5864 5864 5864 5865 5865 5865 5866 5866 5866 5865 5865 5866 5866 5866 5866 5865 5865 5865 5865 5865 5865 5865 5865 5865 5865 5865 5865 5864 5864 5864 5864 5863 5863 5862 5862 5862 5861 5861 5861 5860 5860 5860 5860 5860 5860 5860 5859
5861 5861 5862 5862 5862 5863 5863 5864 5864 5863 5863 5863 5863 5863 5863 5863 5863 5863 5863 5863 5863 5863 5863 5863 5863 5863 5863 5863 5862 5862 5862 5861 5861 5861 5861 5860 5860 5859 5858 5858 5858 5857 5857 5857 5858 5857 5857 5857 5857
5859 5859 5860 5860 5860 5860 5861 5861 5861 5861 5861 5861 5861 5861 5860 5860 5860 5861 5861 5861 5861 5861 5861 5861 5860 5860 5860 5860 5860 5860 5860 5859 5859 5859 5858 5858 5857 5857 5856 5855 5855 5855 5855 5855 5855 5855 5855 5855 5855
5856 5857 5857 5857 5858 5858 5859 5858 5859 5858 5858 5858 5858 5858 5858 5858 5858 5858 5858 5858 5858 5858 5858 5858 5858 5858 5857 5857 5857 5857 5857 5857 5857 5856 5856 5856 5855 5854 5854 5853 5852 5853 5853 5853 5853 5853 5853 5853 5853
5854 5854 5855 5855 5855 5856 5856 5856 5857 5855 5855 5855 5855 5855 5855 5855 5855 5855 5855 5855 5855 5855 5855 5855 5855 5855 5855 5855 5855 5855 5855 5854 5854 5854 5854 5853 5853 5852 5851 5851 5850 5850 5851 5851 5851 5851 5851 5850 5850
5851 5852 5852 5852 5852 5853 5854 5853 5853 5853 5852 5852 5852 5852 5852 5852 5852 5852 5852 5852 5852 5852 5852 5852 5852 5852 5852 5852 5852 5852 5852 5852 5852 5851 5851 5851 5850 5850 5850 5849 5849 5848 5849 5849 5849 5849 5848 5848 5848
5848 5849 5849 5849 5849 5850 5851 5850 5850 5850 5849 5849 5849 5849 5849 5849 5849 5849 5849 5849 5849 5849 5849 5849 5849 5849 5849 5849 5849 5849 5849 5849 5849 5849 5849 5848 5848 5848 5848 5847 5847 5847 5847 5847 5847 5847 5846 5846 5846
5845 5846 5847 5848 5848 5848 5847 5847 5847 5846 5846 5846 5845 5845 5845 5845 5845 5845 5845 5845 5845 5845 5846 5846 5846 5846 5846 5846 5846 5846 5846 5846 5846 5846 5846 5846 5846 5846 5846 5845 5845 5845 5845 5845 5845 5844 5844 5844 5844
5841 5842 5843 5844 5844 5844 5845 5844 5843 5842 5842 5842 5841 5841 5841 5841 5841 5841 5841 5841 5842 5842 5842 5842 5842 5842 5842 5842 5843 5843 5843 5843 5843 5843 5843 5843 5843 5843 5843 5843 5843 5843 5843 5842 5842 5842 5842 5841 5841
5838 5838 5839 5839 5839 5840 5841 5840 5839 5838 5838 5838 5837 5837 5837 5837 5837 5837 5837 5837 5838 5838 5838 5838 5838 5839 5839 5839 5839 5839 5839 5840 5840 5840 5840 5840 5840 5840 5840 5840 5840 5840 5840 5840 5840 5839 5839 5839 5839
5834 5835 5834 5835 5836 5836 5836 5838 5835 5834 5834 5834 5833 5832 5833 5833 5833 5833 5833 5833 5834 5834 5834 5834 5835 5835 5835 5835 5836 5836 5836 5836 5836 5837 5837 5837 5837 5837 5838 5838 5838 5838 5838 5837 5837 5837 5837 5836 5836
5829 5830 5830 5831 5831 5831 5831 5834 5831 5830 5830 5829 5829 5828 5828 5828 5828 5828 5829 5829 5829 5830 5830 5830 5830 5831 5831 5831 5832 5832 5833 5833 5833 5833 5833 5834 5834 5834 5835 5835 5835 5835 5834 5834 5834 5834 5834 5834 5833